Time,TemperatureF,DewpointF,PressureIn,WindDirection,WindDirectionDegrees,WindSpeedMPH,WindSpeedGustMPH,Humidity,HourlyPrecipIn,Conditions,Clouds,dailyrainin,SoftwareType,DateUTC
2013-02-05 00:00:00,12.6,9.7,29.77,SSW,201,5.0,5.0,88,0.00,,OVC044,0.00,VWS V14.01,2013-02-05 06:00:00,
2013-02-05 00:05:00,12.8,9.9,29.76,SSW,204,4.0,13.0,88,0.00,,,0.00,VWS V14.01,2013-02-05 06:05:00,
2013-02-05 00:10:00,12.9,10.0,29.76,SSW,212,4.0,13.0,88,0.00,,OVC044,0.00,VWS V14.01,2013-02-05 06:10:00,
2013-02-05 00:15:00,13.1,10.2,29.76,South,183,6.0,13.0,88,0.00,,OVC044,0.00,VWS V14.01,2013-02-05 06:15:00,
2013-02-05 00:20:00,13.3,10.4,29.75,South,177,6.0,13.0,88,0.00,,OVC044,0.00,VWS V14.01,2013-02-05 06:20:00,
2013-02-05 00:25:00,13.4,10.5,29.75,South,186,7.0,13.0,88,0.00,,OVC044,0.00,VWS V14.01,2013-02-05 06:25:00,
2013-02-05 00:30:00,13.5,10.6,29.75,SW,217,3.0,10.0,88,0.00,,OVC044,0.00,VWS V14.01,2013-02-05 06:30:00,
2013-02-05 00:35:00,13.6,10.7,29.75,SW,217,4.0,10.0,88,0.00,,,0.00,VWS V14.01,2013-02-05 06:35:00,
2013-02-05 00:40:00,13.7,10.8,29.74,SSW,212,8.0,10.0,88,0.00,,,0.00,VWS V14.01,2013-02-05 06:40:00,
2013-02-05 00:45:00,13.9,11.0,29.74,SW,219,4.0,10.0,88,0.00,,,0.00,VWS V14.01,2013-02-05 06:45:00,
2013-02-05 00:50:00,14.1,11.2,29.74,SW,222,3.0,10.0,88,0.00,,OVC034,0.00,VWS V14.01,2013-02-05 06:50:00,
2013-02-05 00:55:00,14.3,11.4,29.74,SW,222,5.0,10.0,88,0.00,,OVC034,0.00,VWS V14.01,2013-02-05 06:55:00,
2013-02-05 01:00:00,14.4,11.5,29.73,SSW,209,4.0,6.0,88,0.00,,OVC034,0.00,VWS V14.01,2013-02-05 07:00:00,
2013-02-05 01:05:00,14.6,11.7,29.74,SSW,193,5.0,7.0,88,0.00,,OVC034,0.00,VWS V14.01,2013-02-05 07:05:00,
2013-02-05 01:10:00,14.7,11.8,29.74,SW,224,2.0,8.0,88,0.00,,OVC034,0.00,VWS V14.01,2013-02-05 07:10:00,
2013-02-05 01:15:00,14.9,12.0,29.74,SW,228,4.0,9.0,88,0.00,,OVC034,0.00,VWS V14.01,2013-02-05 07:15:00,
2013-02-05 01:20:00,15.0,12.1,29.74,SSW,212,3.0,9.0,88,0.00,,OVC034,0.00,VWS V14.01,2013-02-05 07:20:00,
2013-02-05 01:25:00,15.1,12.2,29.73,SSW,205,3.0,9.0,88,0.00,,OVC034,0.00,VWS V14.01,2013-02-05 07:25:00,
2013-02-05 01:30:00,15.2,12.3,29.74,SW,222,3.0,5.0,88,0.00,,OVC034,0.00,VWS V14.01,2013-02-05 07:30:00,
2013-02-05 01:35:00,15.2,12.3,29.73,SSW,193,4.0,5.0,88,0.00,,OVC021,0.00,VWS V14.01,2013-02-05 07:35:00,
2013-02-05 01:40:00,15.3,12.4,29.73,SW,222,2.0,6.0,88,0.00,,OVC021,0.00,VWS V14.01,2013-02-05 07:40:00,
2013-02-05 01:45:00,15.4,12.5,29.73,South,188,3.0,6.0,88,0.00,,OVC021,0.00,VWS V14.01,2013-02-05 07:45:00,
2013-02-05 01:50:00,15.5,12.6,29.73,SW,216,4.0,6.0,88,0.00,,OVC014,0.00,VWS V14.01,2013-02-05 07:50:00,
2013-02-05 01:55:00,15.6,12.9,29.73,SSW,200,4.0,6.0,89,0.00,,OVC014,0.00,VWS V14.01,2013-02-05 07:55:00,
2013-02-05 02:00:00,15.7,13.0,29.73,SW,217,2.0,4.0,89,0.00,,OVC014,0.00,VWS V14.01,2013-02-05 08:00:00,
2013-02-05 02:05:00,15.8,13.1,29.73,SW,216,3.0,5.0,89,0.00,,OVC014,0.00,VWS V14.01,2013-02-05 08:05:00,
2013-02-05 02:10:00,15.9,13.2,29.72,SSW,212,3.0,5.0,89,0.00,,OVC014,0.00,VWS V14.01,2013-02-05 08:10:00,
2013-02-05 02:15:00,15.9,13.2,29.72,SSW,208,4.0,6.0,89,0.00,,OVC014,0.00,VWS V14.01,2013-02-05 08:15:00,
2013-02-05 02:20:00,16.0,13.3,29.71,SW,217,2.0,6.0,89,0.00,,OVC014,0.00,VWS V14.01,2013-02-05 08:20:00,
2013-02-05 02:25:00,16.0,13.3,29.72,SW,222,4.0,6.0,89,0.00,,OVC014,0.00,VWS V14.01,2013-02-05 08:25:00,
2013-02-05 02:30:00,16.1,13.4,29.71,SW,218,3.0,4.0,89,0.00,,OVC014,0.00,VWS V14.01,2013-02-05 08:30:00,
2013-02-05 02:35:00,16.3,13.6,29.71,SSW,212,3.0,5.0,89,0.00,,OVC012,0.00,VWS V14.01,2013-02-05 08:35:00,
2013-02-05 02:40:00,16.4,13.7,29.71,SW,228,1.0,6.0,89,0.00,,OVC012,0.00,VWS V14.01,2013-02-05 08:40:00,
2013-02-05 02:45:00,16.6,13.9,29.71,SW,225,5.0,6.0,89,0.00,,OVC012,0.00,VWS V14.01,2013-02-05 08:45:00,
2013-02-05 02:50:00,16.7,14.0,29.71,SW,225,4.0,6.0,89,0.00,,OVC012,0.00,VWS V14.01,2013-02-05 08:50:00,
2013-02-05 02:55:00,17.0,14.3,29.71,SW,228,2.0,6.0,89,0.00,,OVC012,0.00,VWS V14.01,2013-02-05 08:55:00,
2013-02-05 03:00:00,17.1,14.4,29.70,SW,228,4.0,4.0,89,0.00,,OVC012,0.00,VWS V14.01,2013-02-05 09:00:00,
2013-02-05 03:05:00,17.3,14.6,29.70,SW,235,2.0,5.0,89,0.00,,OVC012,0.00,VWS V14.01,2013-02-05 09:05:00,
2013-02-05 03:10:00,17.4,14.7,29.70,SW,217,5.0,5.0,89,0.00,,OVC012,0.00,VWS V14.01,2013-02-05 09:10:00,
2013-02-05 03:15:00,17.5,14.8,29.69,SW,225,6.0,9.0,89,0.00,,OVC012,0.00,VWS V14.01,2013-02-05 09:15:00,
2013-02-05 03:20:00,17.7,15.0,29.68,SSW,210,3.0,9.0,89,0.00,,OVC012,0.00,VWS V14.01,2013-02-05 09:20:00,
2013-02-05 03:25:00,17.8,15.1,29.68,SSW,208,5.0,9.0,89,0.00,,OVC012,0.00,VWS V14.01,2013-02-05 09:25:00,
2013-02-05 03:30:00,17.9,15.2,29.68,SE,141,6.0,8.0,89,0.00,,OVC012,0.00,VWS V14.01,2013-02-05 09:30:00,
2013-02-05 03:35:00,17.9,15.2,29.69,SW,217,0.0,8.0,89,0.00,,OVC016,0.00,VWS V14.01,2013-02-05 09:35:00,
2013-02-05 03:40:00,17.9,15.2,29.69,SSW,206,1.0,8.0,89,0.00,,OVC016,0.00,VWS V14.01,2013-02-05 09:40:00,
2013-02-05 03:45:00,17.8,15.1,29.69,SW,217,3.0,8.0,89,0.00,,OVC016,0.00,VWS V14.01,2013-02-05 09:45:00,
2013-02-05 03:50:00,17.9,15.2,29.69,SSW,193,3.0,8.0,89,0.00,,OVC016,0.00,VWS V14.01,2013-02-05 09:50:00,
2013-02-05 03:55:00,17.9,15.2,29.69,SW,218,1.0,8.0,89,0.00,,OVC016,0.00,VWS V14.01,2013-02-05 09:55:00,
2013-02-05 04:00:00,17.9,15.2,29.69,SW,225,1.0,1.0,89,0.00,,OVC016,0.00,VWS V14.01,2013-02-05 10:00:00,
2013-02-05 04:05:00,18.0,15.3,29.70,WSW,238,0.0,3.0,89,0.00,,OVC016,0.00,VWS V14.01,2013-02-05 10:05:00,
2013-02-05 04:10:00,18.0,15.3,29.70,SW,231,0.0,3.0,89,0.00,,OVC016,0.00,VWS V14.01,2013-02-05 10:10:00,
2013-02-05 04:15:00,18.1,15.4,29.70,SSW,207,2.0,3.0,89,0.00,,OVC016,0.00,VWS V14.01,2013-02-05 10:15:00,
2013-02-05 04:20:00,18.1,15.4,29.69,SSW,212,1.0,4.0,89,0.00,,OVC019,0.00,VWS V14.01,2013-02-05 10:20:00,
2013-02-05 04:25:00,18.2,15.8,29.69,SW,215,0.0,4.0,90,0.00,,OVC019,0.00,VWS V14.01,2013-02-05 10:25:00,
2013-02-05 04:30:00,18.4,16.0,29.69,SW,219,2.0,3.0,90,0.00,,OVC019,0.00,VWS V14.01,2013-02-05 10:30:00,
2013-02-05 04:35:00,18.5,16.1,29.69,SW,219,1.0,3.0,90,0.00,,OVC015,0.00,VWS V14.01,2013-02-05 10:35:00,
2013-02-05 04:40:00,18.6,16.2,29.69,SW,221,2.0,3.0,90,0.00,,OVC015,0.00,VWS V14.01,2013-02-05 10:40:00,
2013-02-05 04:45:00,18.9,16.5,29.68,SSW,210,1.0,4.0,90,0.00,,OVC015,0.00,VWS V14.01,2013-02-05 10:45:00,
2013-02-05 04:50:00,19.2,16.8,29.68,SW,231,2.0,4.0,90,0.00,,OVC015,0.00,VWS V14.01,2013-02-05 10:50:00,
2013-02-05 04:55:00,19.2,16.8,29.68,SSW,205,3.0,4.0,90,0.00,,OVC015,0.00,VWS V14.01,2013-02-05 10:55:00,
2013-02-05 05:00:00,19.2,16.8,29.68,SW,231,1.0,3.0,90,0.00,,OVC015,0.00,VWS V14.01,2013-02-05 11:00:00,
2013-02-05 05:05:00,19.2,16.8,29.68,WSW,238,1.0,3.0,90,0.00,,OVC016,0.00,VWS V14.01,2013-02-05 11:05:00,
2013-02-05 05:10:00,19.3,16.9,29.68,SW,229,2.0,3.0,90,0.00,,OVC015,0.00,VWS V14.01,2013-02-05 11:10:00,
2013-02-05 05:15:00,19.3,16.9,29.68,SW,217,2.0,4.0,90,0.00,,OVC015,0.00,VWS V14.01,2013-02-05 11:15:00,
2013-02-05 05:20:00,19.4,17.0,29.67,SSW,212,2.0,4.0,90,0.00,,OVC015,0.00,VWS V14.01,2013-02-05 11:20:00,
2013-02-05 05:25:00,19.4,17.0,29.67,SW,225,2.0,4.0,90,0.00,,OVC015,0.00,VWS V14.01,2013-02-05 11:25:00,
2013-02-05 05:30:00,19.4,17.0,29.67,SW,214,2.0,2.0,90,0.00,,OVC015,0.00,VWS V14.01,2013-02-05 11:30:00,
2013-02-05 05:35:00,19.4,17.0,29.67,SW,216,1.0,2.0,90,0.00,,OVC013,0.00,VWS V14.01,2013-02-05 11:35:00,
2013-02-05 05:40:00,19.5,17.0,29.67,SW,228,2.0,2.0,90,0.00,,OVC013,0.00,VWS V14.01,2013-02-05 11:40:00,
2013-02-05 05:45:00,19.6,17.1,29.67,WSW,238,1.0,3.0,90,0.00,,OVC013,0.00,VWS V14.01,2013-02-05 11:45:00,
2013-02-05 05:50:00,19.7,17.2,29.68,WSW,240,2.0,3.0,90,0.00,,OVC013,0.00,VWS V14.01,2013-02-05 11:50:00,
2013-02-05 05:55:00,19.8,17.6,29.68,West,274,1.0,3.0,91,0.00,,OVC013,0.00,VWS V14.01,2013-02-05 11:55:00,
2013-02-05 06:00:00,20.0,17.8,29.69,West,262,2.0,3.0,91,0.00,,OVC013,0.00,VWS V14.01,2013-02-05 12:00:00,
2013-02-05 06:05:00,20.2,18.0,29.69,WSW,243,1.0,3.0,91,0.00,,OVC015,0.00,VWS V14.01,2013-02-05 12:05:00,
2013-02-05 06:10:00,20.4,18.2,29.69,WSW,257,1.0,3.0,91,0.00,,OVC013,0.00,VWS V14.01,2013-02-05 12:10:00,
2013-02-05 06:15:00,20.7,18.5,29.69,West,273,1.0,5.0,91,0.00,,OVC013,0.00,VWS V14.01,2013-02-05 12:15:00,
2013-02-05 06:20:00,21.6,19.6,29.69,West,274,4.0,9.0,92,0.00,,OVC013,0.00,VWS V14.01,2013-02-05 12:20:00,
2013-02-05 06:25:00,21.9,19.7,29.68,SW,233,3.0,9.0,91,0.00,,OVC013,0.00,VWS V14.01,2013-02-05 12:25:00,
2013-02-05 06:30:00,22.1,19.9,29.69,West,269,3.0,4.0,91,0.00,,OVC013,0.00,VWS V14.01,2013-02-05 12:30:00,
2013-02-05 06:35:00,22.5,20.3,29.69,West,280,3.0,5.0,91,0.00,,OVC021,0.00,VWS V14.01,2013-02-05 12:35:00,
2013-02-05 06:40:00,23.0,20.8,29.69,West,280,3.0,5.0,91,0.00,,OVC021,0.00,VWS V14.01,2013-02-05 12:40:00,
2013-02-05 06:45:00,23.2,20.7,29.70,WNW,284,3.0,5.0,90,0.00,,OVC021,0.00,VWS V14.01,2013-02-05 12:45:00,
2013-02-05 06:50:00,23.4,20.9,29.70,West,277,3.0,6.0,90,0.00,,OVC019,0.00,VWS V14.01,2013-02-05 12:50:00,
2013-02-05 06:55:00,23.6,21.1,29.70,West,269,3.0,6.0,90,0.00,,OVC019,0.00,VWS V14.01,2013-02-05 12:55:00,
2013-02-05 07:00:00,23.7,21.2,29.71,West,281,2.0,4.0,90,0.00,,OVC019,0.00,VWS V14.01,2013-02-05 13:00:00,
2013-02-05 07:05:00,23.8,21.0,29.71,WNW,284,1.0,4.0,89,0.00,,OVC011,0.00,VWS V14.01,2013-02-05 13:05:00,
2013-02-05 07:10:00,23.8,21.0,29.71,WNW,292,2.0,5.0,89,0.00,,OVC019,0.00,VWS V14.01,2013-02-05 13:10:00,
2013-02-05 07:15:00,23.8,21.0,29.72,WNW,288,3.0,5.0,89,0.00,,OVC019,0.00,VWS V14.01,2013-02-05 13:15:00,
2013-02-05 07:20:00,23.8,21.0,29.72,WNW,302,2.0,5.0,89,0.00,,OVC019,0.00,VWS V14.01,2013-02-05 13:20:00,
2013-02-05 07:25:00,23.8,21.0,29.72,WNW,291,4.0,6.0,89,0.00,,OVC019,0.00,VWS V14.01,2013-02-05 13:25:00,
2013-02-05 07:30:00,23.8,21.0,29.73,WNW,293,1.0,5.0,89,0.00,,OVC019,0.00,VWS V14.01,2013-02-05 13:30:00,
2013-02-05 07:35:00,23.8,21.0,29.73,NW,307,1.0,5.0,89,0.00,,OVC014,0.00,VWS V14.01,2013-02-05 13:35:00,
2013-02-05 07:40:00,23.8,21.0,29.73,WNW,295,3.0,5.0,89,0.00,,OVC014,0.00,VWS V14.01,2013-02-05 13:40:00,
2013-02-05 07:45:00,23.8,21.0,29.73,WNW,302,1.0,5.0,89,0.00,,OVC014,0.00,VWS V14.01,2013-02-05 13:45:00,
2013-02-05 07:50:00,23.8,21.0,29.73,WNW,300,2.0,5.0,89,0.00,,OVC012,0.00,VWS V14.01,2013-02-05 13:50:00,
2013-02-05 07:55:00,23.9,21.1,29.74,WNW,288,3.0,5.0,89,0.00,,OVC012,0.00,VWS V14.01,2013-02-05 13:55:00,
2013-02-05 08:00:00,24.0,21.2,29.74,NW,311,2.0,4.0,89,0.00,,OVC012,0.00,VWS V14.01,2013-02-05 14:00:00,
2013-02-05 08:05:00,24.0,21.2,29.74,WNW,296,5.0,5.0,89,0.00,,OVC016,0.00,VWS V14.01,2013-02-05 14:05:00,
2013-02-05 08:10:00,24.2,21.4,29.74,WNW,298,3.0,5.0,89,0.00,,OVC012,0.00,VWS V14.01,2013-02-05 14:10:00,
2013-02-05 08:15:00,24.3,21.5,29.74,WNW,297,2.0,5.0,89,0.00,,OVC012,0.00,VWS V14.01,2013-02-05 14:15:00,
2013-02-05 08:20:00,24.4,21.6,29.75,WNW,289,3.0,7.0,89,0.00,,OVC012,0.00,VWS V14.01,2013-02-05 14:20:00,
2013-02-05 08:25:00,24.4,21.6,29.75,NW,305,2.0,7.0,89,0.00,,OVC012,0.00,VWS V14.01,2013-02-05 14:25:00,
2013-02-05 08:30:00,24.5,21.7,29.76,WNW,298,2.0,5.0,89,0.00,,OVC012,0.00,VWS V14.01,2013-02-05 14:30:00,
2013-02-05 08:35:00,24.6,21.8,29.76,NW,318,2.0,6.0,89,0.00,,OVC012,0.00,VWS V14.01,2013-02-05 14:35:00,
2013-02-05 08:40:00,24.6,21.8,29.76,WNW,290,3.0,6.0,89,0.00,,OVC012,0.00,VWS V14.01,2013-02-05 14:40:00,
2013-02-05 08:45:00,24.6,21.8,29.77,WNW,293,2.0,6.0,89,0.00,,OVC012,0.00,VWS V14.01,2013-02-05 14:45:00,
2013-02-05 08:50:00,24.7,21.9,29.77,West,270,3.0,6.0,89,0.00,,OVC027,0.00,VWS V14.01,2013-02-05 14:50:00,
2013-02-05 08:55:00,24.7,21.7,29.77,NW,305,3.0,6.0,88,0.00,,OVC027,0.00,VWS V14.01,2013-02-05 14:55:00,
2013-02-05 09:00:00,24.7,21.7,29.78,NW,313,2.0,4.0,88,0.00,,OVC027,0.00,VWS V14.01,2013-02-05 15:00:00,
2013-02-05 09:05:00,24.7,21.7,29.78,NW,312,2.0,5.0,88,0.00,,OVC012,0.00,VWS V14.01,2013-02-05 15:05:00,
2013-02-05 09:10:00,24.7,21.7,29.78,NW,314,0.0,6.0,88,0.00,,OVC027,0.00,VWS V14.01,2013-02-05 15:10:00,
2013-02-05 09:15:00,24.7,21.7,29.78,East,94,1.0,8.0,88,0.00,,OVC027,0.00,VWS V14.01,2013-02-05 15:15:00,
2013-02-05 09:20:00,24.7,21.7,29.79,NE,41,7.0,8.0,88,0.00,,OVC027,0.00,VWS V14.01,2013-02-05 15:20:00,
2013-02-05 09:25:00,24.7,21.7,29.79,NW,315,1.0,8.0,88,0.00,,OVC027,0.00,VWS V14.01,2013-02-05 15:25:00,
2013-02-05 09:30:00,24.7,21.4,29.79,NW,315,2.0,6.0,87,0.00,,OVC027,0.00,VWS V14.01,2013-02-05 15:30:00,
2013-02-05 09:35:00,24.7,21.4,29.80,NW,320,2.0,6.0,87,0.00,,OVC014,0.00,VWS V14.01,2013-02-05 15:35:00,
2013-02-05 09:40:00,24.7,21.4,29.80,NNW,338,3.0,6.0,87,0.00,,OVC014,0.00,VWS V14.01,2013-02-05 15:40:00,
2013-02-05 09:45:00,24.7,21.4,29.80,WNW,299,2.0,7.0,87,0.00,,OVC014,0.00,VWS V14.01,2013-02-05 15:45:00,
2013-02-05 09:50:00,24.7,21.1,29.81,NW,325,2.0,7.0,86,0.00,,OVC012,0.00,VWS V14.01,2013-02-05 15:50:00,
2013-02-05 09:55:00,24.6,20.7,29.81,NW,318,3.0,7.0,85,0.00,,OVC012,0.00,VWS V14.01,2013-02-05 15:55:00,
2013-02-05 10:00:00,24.6,20.5,29.81,NNW,332,2.0,4.0,84,0.00,,OVC012,0.00,VWS V14.01,2013-02-05 16:00:00,
2013-02-05 10:05:00,24.8,20.9,29.82,NNW,338,9.0,11.0,85,0.00,,OVC025,0.00,VWS V14.01,2013-02-05 16:05:00,
2013-02-05 10:10:00,24.7,20.3,29.82,NNE,15,9.0,11.0,83,0.00,,OVC012,0.00,VWS V14.01,2013-02-05 16:10:00,
2013-02-05 10:15:00,24.6,19.9,29.83,NE,46,2.0,11.0,82,0.00,,OVC012,0.00,VWS V14.01,2013-02-05 16:15:00,
2013-02-05 10:20:00,24.4,19.4,29.83,NW,321,4.0,11.0,81,0.00,,OVC012,0.00,VWS V14.01,2013-02-05 16:20:00,
2013-02-05 10:25:00,24.5,19.8,29.83,NW,314,1.0,11.0,82,0.00,,OVC012,0.00,VWS V14.01,2013-02-05 16:25:00,
2013-02-05 10:30:00,24.4,19.7,29.84,NNW,340,3.0,7.0,82,0.00,,OVC012,0.00,VWS V14.01,2013-02-05 16:30:00,
2013-02-05 10:35:00,24.4,19.7,29.84,NNW,338,2.0,7.0,82,0.00,,OVC015,0.00,VWS V14.01,2013-02-05 16:35:00,
2013-02-05 10:40:00,24.4,19.4,29.85,NW,316,2.0,7.0,81,0.00,,OVC015,0.00,VWS V14.01,2013-02-05 16:40:00,
2013-02-05 10:45:00,24.4,19.4,29.85,NNW,333,3.0,7.0,81,0.00,,OVC015,0.00,VWS V14.01,2013-02-05 16:45:00,
2013-02-05 10:50:00,24.3,19.3,29.86,NW,325,4.0,7.0,81,0.00,,OVC015,0.00,VWS V14.01,2013-02-05 16:50:00,
2013-02-05 10:55:00,24.2,19.2,29.86,NW,322,3.0,7.0,81,0.00,,OVC015,0.00,VWS V14.01,2013-02-05 16:55:00,
2013-02-05 11:00:00,24.3,19.3,29.86,NW,314,3.0,5.0,81,0.00,,OVC015,0.00,VWS V14.01,2013-02-05 17:00:00,
2013-02-05 11:05:00,24.5,19.2,29.86,NE,47,3.0,11.0,80,0.00,,OVC020,0.00,VWS V14.01,2013-02-05 17:05:00,
2013-02-05 11:10:00,24.4,18.8,29.87,NNE,28,3.0,11.0,79,0.00,,OVC015,0.00,VWS V14.01,2013-02-05 17:10:00,
2013-02-05 11:15:00,24.3,18.7,29.88,ENE,60,5.0,11.0,79,0.00,,OVC015,0.00,VWS V14.01,2013-02-05 17:15:00,
2013-02-05 11:20:00,24.3,18.7,29.88,NW,311,2.0,11.0,79,0.00,,OVC015,0.00,VWS V14.01,2013-02-05 17:20:00,
2013-02-05 11:25:00,24.3,18.4,29.88,WNW,291,1.0,11.0,78,0.00,,OVC015,0.00,VWS V14.01,2013-02-05 17:25:00,
2013-02-05 11:30:00,24.5,18.6,29.88,NNW,345,3.0,5.0,78,0.00,,OVC015,0.00,VWS V14.01,2013-02-05 17:30:00,
2013-02-05 11:35:00,24.3,18.1,29.88,NW,318,2.0,6.0,77,0.00,,OVC019,0.00,VWS V14.01,2013-02-05 17:35:00,
2013-02-05 11:40:00,24.5,18.6,29.89,WNW,298,2.0,6.0,78,0.00,,OVC019,0.00,VWS V14.01,2013-02-05 17:40:00,
2013-02-05 11:45:00,24.6,18.4,29.89,NW,319,5.0,6.0,77,0.00,,OVC019,0.00,VWS V14.01,2013-02-05 17:45:00,
2013-02-05 11:50:00,24.4,18.2,29.89,NW,314,3.0,6.0,77,0.00,,BKN019,0.00,VWS V14.01,2013-02-05 17:50:00,
2013-02-05 11:55:00,24.5,18.3,29.89,NE,43,2.0,7.0,77,0.00,,BKN019,0.00,VWS V14.01,2013-02-05 17:55:00,
2013-02-05 12:00:00,24.4,17.9,29.90,NW,312,2.0,4.0,76,0.00,,BKN019,0.00,VWS V14.01,2013-02-05 18:00:00,
2013-02-05 12:05:00,24.6,18.4,29.90,NW,326,5.0,6.0,77,0.00,,OVC017,0.00,VWS V14.01,2013-02-05 18:05:00,
2013-02-05 12:10:00,24.9,18.7,29.90,NW,319,1.0,6.0,77,0.00,,BKN019,0.00,VWS V14.01,2013-02-05 18:10:00,
2013-02-05 12:15:00,24.7,17.9,29.90,WNW,293,3.0,6.0,75,0.00,,BKN019,0.00,VWS V14.01,2013-02-05 18:15:00,
2013-02-05 12:20:00,25.0,18.2,29.90,North,349,1.0,6.0,75,0.00,,BKN019,0.00,VWS V14.01,2013-02-05 18:20:00,
2013-02-05 12:25:00,25.0,17.6,29.90,NW,320,3.0,8.0,73,0.00,,BKN019,0.00,VWS V14.01,2013-02-05 18:25:00,
2013-02-05 12:30:00,24.9,16.8,29.90,NNE,26,5.0,9.0,71,0.00,,BKN019,0.00,VWS V14.01,2013-02-05 18:30:00,
2013-02-05 12:35:00,24.8,16.8,29.90,NNW,338,1.0,9.0,71,0.00,,SCT019,0.00,VWS V14.01,2013-02-05 18:35:00,
2013-02-05 12:40:00,24.9,16.8,29.90,NNE,20,5.0,9.0,71,0.00,,SCT019,0.00,VWS V14.01,2013-02-05 18:40:00,
2013-02-05 12:45:00,24.6,16.5,29.90,NW,314,4.0,9.0,71,0.00,,SCT019,0.00,VWS V14.01,2013-02-05 18:45:00,
2013-02-05 12:50:00,24.8,16.8,29.91,North,5,3.0,9.0,71,0.00,,CLR,0.00,VWS V14.01,2013-02-05 18:50:00,
2013-02-05 12:55:00,24.7,16.3,29.90,NW,308,3.0,9.0,70,0.00,,CLR,0.00,VWS V14.01,2013-02-05 18:55:00,
2013-02-05 13:00:00,24.6,16.2,29.91,NW,314,2.0,4.0,70,0.00,,CLR,0.00,VWS V14.01,2013-02-05 19:00:00,
2013-02-05 13:05:00,24.7,16.3,29.91,NW,321,4.0,9.0,70,0.00,,CLR,0.00,VWS V14.01,2013-02-05 19:05:00,
2013-02-05 13:10:00,24.7,15.7,29.91,North,349,6.0,9.0,68,0.00,,CLR,0.00,VWS V14.01,2013-02-05 19:10:00,
2013-02-05 13:15:00,24.8,15.8,29.91,NW,314,2.0,9.0,68,0.00,,CLR,0.00,VWS V14.01,2013-02-05 19:15:00,
2013-02-05 13:20:00,24.8,15.4,29.92,NNE,20,3.0,9.0,67,0.00,,CLR,0.00,VWS V14.01,2013-02-05 19:20:00,
2013-02-05 13:25:00,24.9,15.5,29.92,NE,47,2.0,9.0,67,0.00,,CLR,0.00,VWS V14.01,2013-02-05 19:25:00,
2013-02-05 13:29:00,24.3,14.2,29.92,NE,55,3.0,6.0,65,0.00,,CLR,0.00,VWS V14.01,2013-02-05 19:29:00,
2013-02-05 13:34:00,24.1,14.7,29.92,NE,47,2.0,8.0,67,0.00,,CLR,0.00,VWS V14.01,2013-02-05 19:34:00,
2013-02-05 13:39:00,24.2,14.1,29.92,NE,47,3.0,8.0,65,0.00,,CLR,0.00,VWS V14.01,2013-02-05 19:39:00,
2013-02-05 13:44:00,24.2,14.1,29.92,NE,53,4.0,8.0,65,0.00,,CLR,0.00,VWS V14.01,2013-02-05 19:44:00,
2013-02-05 13:49:00,24.1,13.7,29.92,NE,48,2.0,10.0,64,0.00,,CLR,0.00,VWS V14.01,2013-02-05 19:49:00,
2013-02-05 13:55:00,24.5,14.4,29.92,NNW,328,3.0,10.0,65,0.00,,CLR,0.00,VWS V14.01,2013-02-05 19:55:00,
2013-02-05 14:00:00,24.8,14.4,29.93,North,349,3.0,4.0,64,0.00,,CLR,0.00,VWS V14.01,2013-02-05 20:00:00,
2013-02-05 14:05:00,24.8,14.4,29.93,NE,44,2.0,7.0,64,0.00,,CLR,0.00,VWS V14.01,2013-02-05 20:05:00,
2013-02-05 14:10:00,24.6,13.8,29.93,NE,47,5.0,7.0,63,0.00,,CLR,0.00,VWS V14.01,2013-02-05 20:10:00,
2013-02-05 14:15:00,24.4,14.0,29.93,NNW,330,2.0,7.0,64,0.00,,CLR,0.00,VWS V14.01,2013-02-05 20:15:00,
2013-02-05 14:20:00,24.6,13.8,29.94,NE,56,2.0,7.0,63,0.00,,CLR,0.00,VWS V14.01,2013-02-05 20:20:00,
2013-02-05 14:25:00,24.7,13.9,29.94,NE,39,2.0,7.0,63,0.00,,CLR,0.00,VWS V14.01,2013-02-05 20:25:00,
2013-02-05 14:30:00,24.7,13.6,29.94,North,352,3.0,3.0,62,0.00,,CLR,0.00,VWS V14.01,2013-02-05 20:30:00,
2013-02-05 14:35:00,24.9,13.4,29.94,NW,308,2.0,8.0,61,0.00,,CLR,0.00,VWS V14.01,2013-02-05 20:35:00,
2013-02-05 14:40:00,25.0,13.8,29.94,NNE,25,1.0,8.0,62,0.00,,CLR,0.00,VWS V14.01,2013-02-05 20:40:00,
2013-02-05 14:45:00,25.4,13.8,29.94,NW,322,1.0,8.0,61,0.00,,CLR,0.00,VWS V14.01,2013-02-05 20:45:00,
2013-02-05 14:50:00,25.7,14.1,29.95,NW,318,2.0,8.0,61,0.00,,CLR,0.00,VWS V14.01,2013-02-05 20:50:00,
2013-02-05 14:55:00,25.7,13.8,29.95,NW,323,1.0,8.0,60,0.00,,CLR,0.00,VWS V14.01,2013-02-05 20:55:00,
2013-02-05 15:00:00,26.0,14.0,29.95,NNE,12,1.0,5.0,60,0.00,,CLR,0.00,VWS V14.01,2013-02-05 21:00:00,
2013-02-05 15:05:00,26.0,14.0,29.96,WNW,296,3.0,5.0,60,0.00,,CLR,0.00,VWS V14.01,2013-02-05 21:05:00,
2013-02-05 15:10:00,25.7,13.8,29.96,NW,307,3.0,5.0,60,0.00,,CLR,0.00,VWS V14.01,2013-02-05 21:10:00,
2013-02-05 15:15:00,25.2,13.6,29.96,WNW,295,2.0,5.0,61,0.00,,CLR,0.00,VWS V14.01,2013-02-05 21:15:00,
2013-02-05 15:20:00,24.9,13.7,29.97,WNW,302,4.0,5.0,62,0.00,,CLR,0.00,VWS V14.01,2013-02-05 21:20:00,
2013-02-05 15:25:00,24.9,13.7,29.97,WNW,288,3.0,5.0,62,0.00,,CLR,0.00,VWS V14.01,2013-02-05 21:25:00,
2013-02-05 15:30:00,24.7,13.2,29.97,NW,314,3.0,4.0,61,0.00,,CLR,0.00,VWS V14.01,2013-02-05 21:30:00,
2013-02-05 15:35:00,24.7,13.6,29.97,WNW,295,4.0,5.0,62,0.00,,CLR,0.00,VWS V14.01,2013-02-05 21:35:00,
2013-02-05 15:40:00,24.7,13.6,29.97,NW,322,2.0,5.0,62,0.00,,CLR,0.00,VWS V14.01,2013-02-05 21:40:00,
2013-02-05 15:45:00,24.5,13.4,29.97,WNW,285,3.0,5.0,62,0.00,,CLR,0.00,VWS V14.01,2013-02-05 21:45:00,
2013-02-05 15:50:00,24.4,13.3,29.97,WNW,303,4.0,5.0,62,0.00,,CLR,0.00,VWS V14.01,2013-02-05 21:50:00,
2013-02-05 15:55:00,24.4,13.6,29.97,WNW,283,3.0,5.0,63,0.00,,CLR,0.00,VWS V14.01,2013-02-05 21:55:00,
2013-02-05 16:00:00,24.2,13.1,29.97,NW,308,2.0,3.0,62,0.00,,CLR,0.00,VWS V14.01,2013-02-05 22:00:00,
2013-02-05 16:05:00,24.1,13.0,29.97,WNW,295,3.0,5.0,62,0.00,,CLR,0.00,VWS V14.01,2013-02-05 22:05:00,
2013-02-05 16:10:00,24.0,12.9,29.98,WNW,295,1.0,5.0,62,0.00,,CLR,0.00,VWS V14.01,2013-02-05 22:10:00,
2013-02-05 16:15:00,24.2,13.1,29.98,WNW,299,2.0,5.0,62,0.00,,CLR,0.00,VWS V14.01,2013-02-05 22:15:00,
2013-02-05 16:20:00,24.3,13.2,29.98,WNW,294,1.0,5.0,62,0.00,,CLR,0.00,VWS V14.01,2013-02-05 22:20:00,
2013-02-05 16:25:00,24.3,12.8,29.98,WNW,285,1.0,5.0,61,0.00,,CLR,0.00,VWS V14.01,2013-02-05 22:25:00,
2013-02-05 16:30:00,24.3,12.8,29.98,NW,307,2.0,3.0,61,0.00,,CLR,0.00,VWS V14.01,2013-02-05 22:30:00,
2013-02-05 16:35:00,24.2,12.7,29.98,WNW,297,3.0,4.0,61,0.00,,CLR,0.00,VWS V14.01,2013-02-05 22:35:00,
2013-02-05 16:40:00,24.2,12.7,29.98,WNW,293,1.0,4.0,61,0.00,,CLR,0.00,VWS V14.01,2013-02-05 22:40:00,
2013-02-05 16:45:00,24.1,12.6,29.98,WNW,295,2.0,4.0,61,0.00,,CLR,0.00,VWS V14.01,2013-02-05 22:45:00,
2013-02-05 16:50:00,24.1,12.6,29.98,WNW,295,1.0,4.0,61,0.00,,CLR,0.00,VWS V14.01,2013-02-05 22:50:00,
2013-02-05 16:55:00,23.9,12.4,29.99,WNW,292,1.0,4.0,61,0.00,,CLR,0.00,VWS V14.01,2013-02-05 22:55:00,
2013-02-05 17:00:00,23.5,12.0,29.99,WNW,288,0.0,2.0,61,0.00,,CLR,0.00,VWS V14.01,2013-02-05 23:00:00,
2013-02-05 17:05:00,23.1,12.0,29.99,WNW,295,1.0,3.0,62,0.00,,CLR,0.00,VWS V14.01,2013-02-05 23:05:00,
2013-02-05 17:10:00,22.7,11.6,29.99,WNW,284,1.0,3.0,62,0.00,,CLR,0.00,VWS V14.01,2013-02-05 23:10:00,
2013-02-05 17:15:00,22.2,11.5,30.00,WNW,295,1.0,3.0,63,0.00,,CLR,0.00,VWS V14.01,2013-02-05 23:15:00,
2013-02-05 17:20:00,21.8,11.2,30.00,WNW,302,1.0,3.0,63,0.00,,CLR,0.00,VWS V14.01,2013-02-05 23:20:00,
2013-02-05 17:24:00,21.4,11.1,30.01,WNW,294,2.0,3.0,64,0.00,,CLR,0.00,VWS V14.01,2013-02-05 23:24:00,
2013-02-05 17:29:00,21.2,10.9,30.01,WNW,300,1.0,2.0,64,0.00,,CLR,0.00,VWS V14.01,2013-02-05 23:29:00,
2013-02-05 17:34:00,21.1,11.2,30.01,WNW,295,2.0,3.0,65,0.00,,CLR,0.00,VWS V14.01,2013-02-05 23:34:00,
2013-02-05 17:39:00,20.9,11.0,30.02,WNW,292,1.0,3.0,65,0.00,,CLR,0.00,VWS V14.01,2013-02-05 23:39:00,
2013-02-05 17:44:00,20.7,10.8,30.02,WNW,300,0.0,3.0,65,0.00,,CLR,0.00,VWS V14.01,2013-02-05 23:44:00,
2013-02-05 17:49:00,20.5,11.0,30.02,WNW,295,1.0,3.0,66,0.00,,CLR,0.00,VWS V14.01,2013-02-05 23:49:00,
2013-02-05 17:54:00,20.3,10.8,30.02,WNW,295,1.0,3.0,66,0.00,,CLR,0.00,VWS V14.01,2013-02-05 23:54:00,
2013-02-05 17:59:00,20.2,10.7,30.02,WNW,300,1.0,1.0,66,0.00,,CLR,0.00,VWS V14.01,2013-02-05 23:59:00,
2013-02-05 18:04:00,20.1,10.6,30.02,WNW,300,1.0,1.0,66,0.00,,CLR,0.00,VWS V14.01,2013-02-06 00:04:00,
2013-02-05 18:09:00,20.0,10.5,30.02,WNW,300,1.0,1.0,66,0.00,,CLR,0.00,VWS V14.01,2013-02-06 00:09:00,
2013-02-05 18:14:00,19.9,10.4,30.03,WNW,300,1.0,1.0,66,0.00,,CLR,0.00,VWS V14.01,2013-02-06 00:14:00,
2013-02-05 18:19:00,19.7,10.5,30.03,WNW,300,1.0,1.0,67,0.00,,CLR,0.00,VWS V14.01,2013-02-06 00:19:00,
2013-02-05 18:24:00,19.6,10.4,30.03,WNW,301,0.0,1.0,67,0.00,,CLR,0.00,VWS V14.01,2013-02-06 00:24:00,
2013-02-05 18:29:00,19.4,10.2,30.04,NNW,338,3.0,3.0,67,0.00,,CLR,0.00,VWS V14.01,2013-02-06 00:29:00,
2013-02-05 18:34:00,19.3,10.1,30.04,NW,309,1.0,4.0,67,0.00,,CLR,0.00,VWS V14.01,2013-02-06 00:34:00,
2013-02-05 18:40:00,19.1,10.0,30.04,NW,311,1.0,4.0,67,0.00,,CLR,0.00,VWS V14.01,2013-02-06 00:40:00,
2013-02-05 18:44:00,19.0,9.9,30.04,WNW,297,1.0,4.0,67,0.00,,CLR,0.00,VWS V14.01,2013-02-06 00:44:00,
2013-02-05 18:49:00,18.9,9.4,30.04,WNW,302,0.0,4.0,66,0.00,,CLR,0.00,VWS V14.01,2013-02-06 00:49:00,
2013-02-05 18:54:00,18.8,9.3,30.04,NW,309,1.0,4.0,66,0.00,,CLR,0.00,VWS V14.01,2013-02-06 00:54:00,
2013-02-05 18:59:00,18.6,9.1,30.04,NW,309,1.0,1.0,66,0.00,,CLR,0.00,VWS V14.01,2013-02-06 00:59:00,
2013-02-05 19:04:00,18.4,9.0,30.04,NW,309,0.0,2.0,66,0.00,,CLR,0.00,VWS V14.01,2013-02-06 01:04:00,
2013-02-05 19:09:00,18.3,8.9,30.04,NW,309,0.0,2.0,66,0.00,,CLR,0.00,VWS V14.01,2013-02-06 01:09:00,
2013-02-05 19:14:00,18.2,8.8,30.04,NW,309,0.0,2.0,66,0.00,,CLR,0.00,VWS V14.01,2013-02-06 01:14:00,
2013-02-05 19:20:00,17.9,8.5,30.05,NW,304,0.0,2.0,66,0.00,,CLR,0.00,VWS V14.01,2013-02-06 01:20:00,
2013-02-05 19:25:00,17.4,8.0,30.04,NW,304,0.0,2.0,66,0.00,,CLR,0.00,VWS V14.01,2013-02-06 01:25:00,
2013-02-05 19:29:00,16.7,7.7,30.04,NW,304,0.0,0.0,67,0.00,,CLR,0.00,VWS V14.01,2013-02-06 01:29:00,
2013-02-05 19:35:00,16.2,7.8,30.04,NW,304,0.0,0.0,69,0.00,,CLR,0.00,VWS V14.01,2013-02-06 01:35:00,
2013-02-05 19:40:00,16.1,7.7,30.05,NW,304,0.0,0.0,69,0.00,,CLR,0.00,VWS V14.01,2013-02-06 01:40:00,
2013-02-05 19:45:00,15.9,7.9,30.05,WNW,287,1.0,1.0,70,0.00,,CLR,0.00,VWS V14.01,2013-02-06 01:45:00,
2013-02-05 19:50:00,15.8,8.1,30.05,West,262,2.0,2.0,71,0.00,,CLR,0.00,VWS V14.01,2013-02-06 01:50:00,
2013-02-05 19:55:00,15.6,7.6,30.06,West,266,2.0,3.0,70,0.00,,CLR,0.00,VWS V14.01,2013-02-06 01:55:00,
2013-02-05 20:00:00,15.2,7.5,30.06,WSW,256,1.0,2.0,71,0.00,,CLR,0.00,VWS V14.01,2013-02-06 02:00:00,
2013-02-05 20:05:00,14.5,7.1,30.06,West,266,1.0,2.0,72,0.00,,CLR,0.00,VWS V14.01,2013-02-06 02:05:00,
2013-02-05 20:10:00,14.3,7.6,30.06,West,264,0.0,2.0,74,0.00,,CLR,0.00,VWS V14.01,2013-02-06 02:10:00,
2013-02-05 20:15:00,14.3,7.6,30.05,West,264,0.0,2.0,74,0.00,,CLR,0.00,VWS V14.01,2013-02-06 02:15:00,
2013-02-05 20:20:00,14.4,7.6,30.05,West,264,0.0,2.0,74,0.00,,CLR,0.00,VWS V14.01,2013-02-06 02:20:00,
2013-02-05 20:25:00,14.6,7.5,30.05,West,264,0.0,2.0,73,0.00,,CLR,0.00,VWS V14.01,2013-02-06 02:25:00,
2013-02-05 20:30:00,14.5,7.4,30.06,West,264,0.0,1.0,73,0.00,,CLR,0.00,VWS V14.01,2013-02-06 02:30:00,
2013-02-05 20:35:00,14.1,7.1,30.06,West,266,1.0,1.0,73,0.00,,CLR,0.00,VWS V14.01,2013-02-06 02:35:00,
2013-02-05 20:40:00,13.6,6.9,30.07,West,262,1.0,2.0,74,0.00,,CLR,0.00,VWS V14.01,2013-02-06 02:40:00,
2013-02-05 20:45:00,13.5,7.1,30.07,West,270,0.0,2.0,75,0.00,,CLR,0.00,VWS V14.01,2013-02-06 02:45:00,
2013-02-05 20:50:00,13.7,7.3,30.07,West,270,0.0,2.0,75,0.00,,CLR,0.00,VWS V14.01,2013-02-06 02:50:00,
2013-02-05 20:55:00,13.9,7.4,30.07,West,270,0.0,2.0,75,0.00,,CLR,0.00,VWS V14.01,2013-02-06 02:55:00,
2013-02-05 21:00:00,13.6,6.9,30.07,West,270,0.0,0.0,74,0.00,,CLR,0.00,VWS V14.01,2013-02-06 03:00:00,
2013-02-05 21:05:00,13.2,6.5,30.06,West,270,0.0,0.0,74,0.00,,CLR,0.00,VWS V14.01,2013-02-06 03:05:00,
2013-02-05 21:10:00,12.7,6.3,30.06,West,270,0.0,0.0,75,0.00,,CLR,0.00,VWS V14.01,2013-02-06 03:10:00,
2013-02-05 21:15:00,12.5,6.4,30.07,West,270,0.0,0.0,76,0.00,,CLR,0.00,VWS V14.01,2013-02-06 03:15:00,
2013-02-05 21:20:00,12.1,6.3,30.07,West,264,1.0,1.0,77,0.00,,CLR,0.00,VWS V14.01,2013-02-06 03:20:00,
2013-02-05 21:25:00,12.1,6.3,30.07,West,264,0.0,1.0,77,0.00,,CLR,0.00,VWS V14.01,2013-02-06 03:25:00,
2013-02-05 21:30:00,11.7,5.9,30.07,West,263,1.0,1.0,77,0.00,,CLR,0.00,VWS V14.01,2013-02-06 03:30:00,
2013-02-05 21:35:00,11.5,6.0,30.08,WSW,250,1.0,2.0,78,0.00,,CLR,0.00,VWS V14.01,2013-02-06 03:35:00,
2013-02-05 21:40:00,11.7,6.2,30.09,WSW,250,1.0,2.0,78,0.00,,CLR,0.00,VWS V14.01,2013-02-06 03:40:00,
2013-02-05 21:45:00,11.2,5.4,30.09,West,265,1.0,2.0,77,0.00,,CLR,0.00,VWS V14.01,2013-02-06 03:45:00,
2013-02-05 21:50:00,11.1,6.2,30.09,West,275,2.0,2.0,80,0.00,,SCT120,0.00,VWS V14.01,2013-02-06 03:50:00,
2013-02-05 21:55:00,11.5,6.3,30.09,WNW,284,0.0,2.0,79,0.00,,SCT120,0.00,VWS V14.01,2013-02-06 03:55:00,
2013-02-05 22:00:00,11.7,6.5,30.09,WNW,284,0.0,1.0,79,0.00,,CLR,0.00,VWS V14.01,2013-02-06 04:00:00,
2013-02-05 22:05:00,11.6,6.1,30.09,WNW,284,0.0,1.0,78,0.00,,CLR,0.00,VWS V14.01,2013-02-06 04:05:00,
2013-02-05 22:10:00,11.4,5.9,30.09,WNW,284,0.0,1.0,78,0.00,,SCT120,0.00,VWS V14.01,2013-02-06 04:10:00,
2013-02-05 22:15:00,11.1,5.6,30.09,WNW,284,0.0,1.0,78,0.00,,SCT120,0.00,VWS V14.01,2013-02-06 04:15:00,
2013-02-05 22:20:00,10.9,5.7,30.08,WNW,284,0.0,1.0,79,0.00,,SCT120,0.00,VWS V14.01,2013-02-06 04:20:00,
2013-02-05 22:25:00,10.7,5.8,30.08,WNW,284,0.0,1.0,80,0.00,,SCT120,0.00,VWS V14.01,2013-02-06 04:25:00,
2013-02-05 22:30:00,10.6,5.7,30.08,WNW,284,0.0,0.0,80,0.00,,SCT120,0.00,VWS V14.01,2013-02-06 04:30:00,
2013-02-05 22:35:00,10.3,5.4,30.08,WNW,284,0.0,0.0,80,0.00,,SCT120,0.00,VWS V14.01,2013-02-06 04:35:00,
2013-02-05 22:40:00,10.3,5.6,30.08,WNW,283,0.0,0.0,81,0.00,,SCT120,0.00,VWS V14.01,2013-02-06 04:40:00,
2013-02-05 22:45:00,10.0,5.3,30.08,WNW,283,0.0,0.0,81,0.00,,SCT120,0.00,VWS V14.01,2013-02-06 04:45:00,
2013-02-05 22:50:00,9.6,4.7,30.08,WNW,284,0.0,0.0,80,0.00,,SCT120,0.00,VWS V14.01,2013-02-06 04:50:00,
2013-02-05 22:55:00,9.3,4.7,30.08,WNW,284,0.0,0.0,81,0.00,,SCT120,0.00,VWS V14.01,2013-02-06 04:55:00,
2013-02-05 23:00:00,9.6,5.2,30.07,WNW,284,0.0,0.0,82,0.00,,SCT120,0.00,VWS V14.01,2013-02-06 05:00:00,
2013-02-05 23:05:00,9.7,5.3,30.07,WNW,284,0.0,0.0,82,0.00,,SCT120,0.00,VWS V14.01,2013-02-06 05:05:00,
2013-02-05 23:10:00,9.8,5.4,30.07,WNW,284,0.0,0.0,82,0.00,,SCT120,0.00,VWS V14.01,2013-02-06 05:10:00,
2013-02-05 23:15:00,9.4,5.0,30.08,WNW,284,0.0,0.0,82,0.00,,SCT120,0.00,VWS V14.01,2013-02-06 05:15:00,
2013-02-05 23:20:00,9.2,4.8,30.08,WNW,284,0.0,0.0,82,0.00,,SCT120,0.00,VWS V14.01,2013-02-06 05:20:00,
2013-02-05 23:25:00,8.7,4.3,30.08,WNW,284,0.0,0.0,82,0.00,,SCT120,0.00,VWS V14.01,2013-02-06 05:25:00,
2013-02-05 23:30:00,8.1,3.8,30.08,WNW,284,0.0,0.0,82,0.00,,SCT120,0.00,VWS V14.01,2013-02-06 05:30:00,
2013-02-05 23:35:00,7.9,3.8,30.08,WNW,284,0.0,0.0,83,0.00,,BKN120,0.00,VWS V14.01,2013-02-06 05:35:00,
2013-02-05 23:40:00,7.8,4.0,30.08,West,259,0.0,1.0,84,0.00,,BKN120,0.00,VWS V14.01,2013-02-06 05:40:00,
2013-02-05 23:45:00,7.6,4.0,30.08,West,259,0.0,1.0,85,0.00,,BKN120,0.00,VWS V14.01,2013-02-06 05:45:00,
2013-02-05 23:50:00,7.4,3.8,30.09,West,259,0.0,1.0,85,0.00,,BKN120,0.00,VWS V14.01,2013-02-06 05:50:00,
2013-02-05 23:55:00,7.3,4.0,30.09,West,259,0.0,1.0,86,0.00,,BKN120,0.00,VWS V14.01,2013-02-06 05:55:00,